SES-9

Last updated on Sun Jun 21 2026 00:03:06 GMT+0000 (Coordinated Universal Time)

1 41380U 16013A 26171.34216894 -.00000349 00000+0 00000+0 0 9996 2 41380 0.0111 338.5957 0002324 101.7052 59.7247 1.00269311 37476
UTC large
Height (km)
Speed (km/s)
/
Latitude / Longitude
Inclination (degrees)
Orbital Period (minutes)
Azimuth
Elevation
Range (km)
Doppler Factor

Next 0 passes for location: London (51.5072 / 0.1276)

No passes found over London.
SES-9